Time,TemperatureF,DewpointF,PressureIn,WindDirection,WindDirectionDegrees,WindSpeedMPH,WindSpeedGustMPH,Humidity,HourlyPrecipIn,Conditions,Clouds,dailyrainin,SolarRadiationWatts/m^2,SoftwareType,DateUTC
2013-07-20 00:02:00,63.0,60.0,-100.00,SSW,199,0.0,2.0,91,0.00,,,0.03,0.000000,,2013-07-20 05:02:00,
2013-07-20 00:12:00,63.0,60.0,-100.00,SSW,199,0.0,2.0,91,0.00,,,0.03,0.000000,,2013-07-20 05:12:00,
2013-07-20 00:52:00,65.0,62.0,-100.00,SW,232,0.0,25.0,91,0.01,,,0.04,0.000000,,2013-07-20 05:52:00,
2013-07-20 01:01:00,65.0,62.0,-100.00,SW,232,0.0,25.0,91,0.01,,,0.04,0.000000,,2013-07-20 06:01:00,
2013-07-20 01:11:00,65.0,62.0,-100.00,SW,232,0.0,25.0,91,0.01,,,0.04,0.000000,,2013-07-20 06:11:00,
2013-07-20 01:43:00,63.0,62.0,-100.00,ESE,119,0.0,3.0,95,0.00,,,0.01,0.000000,,2013-07-20 06:43:00,
2013-07-20 01:52:00,63.0,62.0,-100.00,ESE,119,0.0,3.0,95,0.00,,,0.01,0.000000,,2013-07-20 06:52:00,
2013-07-20 02:01:00,63.0,62.0,-100.00,ESE,119,0.0,3.0,95,0.00,,,0.01,0.000000,,2013-07-20 07:01:00,
2013-07-20 02:12:00,63.0,62.0,-100.00,ESE,119,0.0,3.0,95,0.00,,,0.01,0.000000,,2013-07-20 07:12:00,
2013-07-20 02:44:00,62.0,60.0,-100.00,West,262,0.0,3.0,94,0.00,,,0.01,0.000000,,2013-07-20 07:44:00,
2013-07-20 02:54:00,62.0,60.0,-100.00,West,262,0.0,3.0,94,0.00,,,0.01,0.000000,,2013-07-20 07:54:00,
2013-07-20 03:02:00,62.0,60.0,-100.00,West,262,0.0,3.0,94,0.00,,,0.01,0.000000,,2013-07-20 08:02:00,
2013-07-20 03:11:00,62.0,60.0,-100.00,West,262,0.0,3.0,94,0.00,,,0.01,0.000000,,2013-07-20 08:11:00,
2013-07-20 03:44:00,59.0,58.0,-100.00,ESE,123,0.0,1.0,95,0.00,,,0.01,0.000000,,2013-07-20 08:44:00,
2013-07-20 03:52:00,59.0,58.0,-100.00,ESE,123,0.0,1.0,95,0.00,,,0.01,0.000000,,2013-07-20 08:52:00,
2013-07-20 04:02:00,59.0,58.0,-100.00,ESE,123,0.0,1.0,95,0.00,,,0.01,0.000000,,2013-07-20 09:02:00,
2013-07-20 04:11:00,59.0,58.0,-100.00,ESE,123,0.0,1.0,95,0.00,,,0.01,0.000000,,2013-07-20 09:11:00,
2013-07-20 04:43:00,60.0,59.0,-100.00,SSE,165,0.0,1.0,97,0.00,,,0.01,0.000000,,2013-07-20 09:43:00,
2013-07-20 04:53:00,60.0,59.0,-100.00,SSE,165,0.0,1.0,97,0.00,,,0.01,0.000000,,2013-07-20 09:53:00,
2013-07-20 05:01:00,60.0,59.0,-100.00,SSE,165,0.0,1.0,97,0.00,,,0.01,0.000000,,2013-07-20 10:01:00,
2013-07-20 05:11:00,60.0,59.0,-100.00,SSE,165,0.0,1.0,97,0.00,,,0.01,0.000000,,2013-07-20 10:11:00,
2013-07-20 05:42:00,59.0,58.0,-100.00,NW,313,0.0,2.0,96,0.00,,,0.01,0.000000,,2013-07-20 10:42:00,
2013-07-20 05:52:00,59.0,58.0,-100.00,NW,313,0.0,2.0,96,0.00,,,0.01,0.000000,,2013-07-20 10:52:00,
2013-07-20 06:02:00,59.0,58.0,-100.00,NW,313,0.0,2.0,96,0.00,,,0.01,0.000000,,2013-07-20 11:02:00,
2013-07-20 06:11:00,59.0,58.0,-100.00,NW,313,0.0,2.0,96,0.00,,,0.01,0.000000,,2013-07-20 11:11:00,
2013-07-20 06:43:00,58.0,57.0,-100.00,North,360,0.0,3.0,95,0.00,,,0.01,9.000000,,2013-07-20 11:43:00,
2013-07-20 06:52:00,58.0,57.0,-100.00,North,360,0.0,3.0,95,0.00,,,0.01,9.000000,,2013-07-20 11:52:00,
2013-07-20 07:01:00,58.0,57.0,-100.00,North,360,0.0,3.0,95,0.00,,,0.01,9.000000,,2013-07-20 12:01:00,
2013-07-20 07:11:00,58.0,57.0,-100.00,North,360,0.0,3.0,95,0.00,,,0.01,9.000000,,2013-07-20 12:11:00,
2013-07-20 07:52:00,62.0,58.0,-100.00,NNW,328,0.0,2.0,88,0.00,,,0.01,87.000000,,2013-07-20 12:52:00,
2013-07-20 08:01:00,62.0,58.0,-100.00,NNW,328,0.0,2.0,88,0.00,,,0.01,87.000000,,2013-07-20 13:01:00,
2013-07-20 08:11:00,62.0,58.0,-100.00,NNW,328,0.0,2.0,88,0.00,,,0.01,87.000000,,2013-07-20 13:11:00,
2013-07-20 08:43:00,64.0,54.0,-100.00,NNE,17,2.0,6.0,70,0.00,,,0.01,178.000000,,2013-07-20 13:43:00,
2013-07-20 08:53:00,64.0,54.0,-100.00,NNE,17,2.0,6.0,70,0.00,,,0.01,178.000000,,2013-07-20 13:53:00,
2013-07-20 09:02:00,64.0,54.0,-100.00,NNE,17,2.0,6.0,70,0.00,,,0.01,178.000000,,2013-07-20 14:02:00,
2013-07-20 09:11:00,64.0,54.0,-100.00,NNE,17,2.0,6.0,70,0.00,,,0.01,178.000000,,2013-07-20 14:11:00,
2013-07-20 09:43:00,67.0,53.0,-100.00,NE,43,3.0,8.0,60,0.00,,,0.01,338.000000,,2013-07-20 14:43:00,
2013-07-20 09:53:00,67.0,53.0,-100.00,NE,43,3.0,8.0,60,0.00,,,0.01,338.000000,,2013-07-20 14:53:00,
2013-07-20 10:01:00,67.0,53.0,-100.00,NE,43,3.0,8.0,60,0.00,,,0.01,338.000000,,2013-07-20 15:01:00,
2013-07-20 10:11:00,67.0,53.0,-100.00,NE,43,3.0,8.0,60,0.00,,,0.01,338.000000,,2013-07-20 15:11:00,
2013-07-20 10:44:00,67.0,51.0,-100.00,NNE,28,3.0,11.0,56,0.00,,,0.01,477.000000,,2013-07-20 15:44:00,
2013-07-20 10:53:00,67.0,51.0,-100.00,NNE,28,3.0,11.0,56,0.00,,,0.01,477.000000,,2013-07-20 15:53:00,
2013-07-20 11:01:00,67.0,51.0,-100.00,NNE,28,3.0,11.0,56,0.00,,,0.01,477.000000,,2013-07-20 16:01:00,
2013-07-20 11:11:00,67.0,51.0,-100.00,NNE,28,3.0,11.0,56,0.00,,,0.01,477.000000,,2013-07-20 16:11:00,
2013-07-20 11:44:00,68.0,52.0,-100.00,NNE,15,5.0,10.0,56,0.00,,,0.01,444.000000,,2013-07-20 16:44:00,
2013-07-20 11:52:00,68.0,52.0,-100.00,NNE,15,5.0,10.0,56,0.00,,,0.01,444.000000,,2013-07-20 16:52:00,
2013-07-20 12:02:00,68.0,52.0,-100.00,NNE,15,5.0,10.0,56,0.00,,,0.01,444.000000,,2013-07-20 17:02:00,
2013-07-20 12:11:00,68.0,52.0,-100.00,NNE,15,5.0,10.0,56,0.00,,,0.01,444.000000,,2013-07-20 17:11:00,
2013-07-20 12:43:00,71.0,52.0,-100.00,NE,54,4.0,11.0,52,0.00,,,0.01,801.000000,,2013-07-20 17:43:00,
2013-07-20 12:53:00,71.0,52.0,-100.00,NE,54,4.0,11.0,52,0.00,,,0.01,801.000000,,2013-07-20 17:53:00,
2013-07-20 13:01:00,71.0,52.0,-100.00,NE,54,4.0,11.0,52,0.00,,,0.01,801.000000,,2013-07-20 18:01:00,
2013-07-20 13:12:00,71.0,52.0,-100.00,NE,54,4.0,11.0,52,0.00,,,0.01,801.000000,,2013-07-20 18:12:00,
2013-07-20 13:15:00,72.0,52.0,-100.00,NE,53,4.0,11.0,49,0.00,,,0.01,615.000000,,2013-07-20 18:15:00,
2013-07-20 13:47:00,72.0,52.0,-100.00,NE,53,4.0,11.0,49,0.00,,,0.01,615.000000,,2013-07-20 18:47:00,
2013-07-20 13:59:00,72.0,52.0,-100.00,NE,53,4.0,11.0,49,0.00,,,0.01,615.000000,,2013-07-20 18:59:00,
2013-07-20 14:05:00,72.0,52.0,-100.00,NE,53,4.0,11.0,49,0.00,,,0.01,615.000000,,2013-07-20 19:05:00,
2013-07-20 14:44:00,74.0,51.0,-100.00,NNW,343,4.0,13.0,44,0.00,,,0.01,884.000000,,2013-07-20 19:44:00,
2013-07-20 14:56:00,74.0,51.0,-100.00,NNW,343,4.0,13.0,44,0.00,,,0.01,884.000000,,2013-07-20 19:56:00,
2013-07-20 15:06:00,74.0,51.0,-100.00,NNW,343,4.0,13.0,44,0.00,,,0.01,884.000000,,2013-07-20 20:06:00,
2013-07-20 15:14:00,74.0,51.0,-100.00,NNW,343,4.0,13.0,44,0.00,,,0.01,884.000000,,2013-07-20 20:14:00,
2013-07-20 15:47:00,75.0,50.0,-100.00,NNE,19,5.0,13.0,42,0.00,,,0.01,838.000000,,2013-07-20 20:47:00,
2013-07-20 15:58:00,75.0,50.0,-100.00,NNE,19,5.0,13.0,42,0.00,,,0.01,838.000000,,2013-07-20 20:58:00,
2013-07-20 16:05:00,75.0,50.0,-100.00,NNE,19,5.0,13.0,42,0.00,,,0.01,838.000000,,2013-07-20 21:05:00,
2013-07-20 16:14:00,75.0,50.0,-100.00,NNE,19,5.0,13.0,42,0.00,,,0.01,838.000000,,2013-07-20 21:14:00,
2013-07-20 16:15:00,75.0,50.0,-100.00,NNE,16,6.0,11.0,42,0.00,,,0.01,626.000000,,2013-07-20 21:15:00,
2013-07-20 16:48:00,75.0,50.0,-100.00,NNE,16,6.0,11.0,42,0.00,,,0.01,626.000000,,2013-07-20 21:48:00,
2013-07-20 16:56:00,75.0,50.0,-100.00,NNE,16,6.0,11.0,42,0.00,,,0.01,626.000000,,2013-07-20 21:56:00,
2013-07-20 17:06:00,75.0,50.0,-100.00,NNE,16,6.0,11.0,42,0.00,,,0.01,626.000000,,2013-07-20 22:06:00,
2013-07-20 17:15:00,76.0,52.0,-100.00,ENE,71,3.0,11.0,43,0.00,,,0.01,567.000000,,2013-07-20 22:15:00,
2013-07-20 17:50:00,76.0,52.0,-100.00,ENE,71,3.0,11.0,43,0.00,,,0.01,567.000000,,2013-07-20 22:50:00,
2013-07-20 17:57:00,76.0,52.0,-100.00,ENE,71,3.0,11.0,43,0.00,,,0.01,567.000000,,2013-07-20 22:57:00,
2013-07-20 18:04:00,76.0,52.0,-100.00,ENE,71,3.0,11.0,43,0.00,,,0.01,567.000000,,2013-07-20 23:04:00,
2013-07-20 18:15:00,73.0,53.0,-100.00,NE,36,3.0,8.0,49,0.00,,,0.01,212.000000,,2013-07-20 23:15:00,
2013-07-20 18:46:00,73.0,53.0,-100.00,NE,36,3.0,8.0,49,0.00,,,0.01,212.000000,,2013-07-20 23:46:00,
2013-07-20 18:57:00,73.0,53.0,-100.00,NE,36,3.0,8.0,49,0.00,,,0.01,212.000000,,2013-07-20 23:57:00,
2013-07-20 19:06:00,73.0,53.0,-100.00,NE,36,3.0,8.0,49,0.00,,,0.01,212.000000,,2013-07-21 00:06:00,
2013-07-20 19:45:00,72.0,53.0,-100.00,NNE,30,1.0,7.0,51,0.00,,,0.01,152.000000,,2013-07-21 00:45:00,
2013-07-20 19:56:00,72.0,53.0,-100.00,NNE,30,1.0,7.0,51,0.00,,,0.01,152.000000,,2013-07-21 00:56:00,
2013-07-20 20:06:00,72.0,53.0,-100.00,NNE,30,1.0,7.0,51,0.00,,,0.01,152.000000,,2013-07-21 01:06:00,
2013-07-20 20:12:00,72.0,53.0,-100.00,NNE,30,1.0,7.0,51,0.00,,,0.01,152.000000,,2013-07-21 01:12:00,
2013-07-20 20:15:00,69.0,50.0,-100.00,NE,39,2.0,5.0,51,0.00,,,0.01,45.000000,,2013-07-21 01:15:00,
2013-07-20 20:49:00,-999.0,-99.9,-100.00,NE,39,2.0,5.0,-999,-99.99,,,-99.99,45.000000,,2013-07-21 01:49:00,
2013-07-20 20:59:00,69.0,50.0,-100.00,NE,39,2.0,5.0,51,0.00,,,0.01,45.000000,,2013-07-21 01:59:00,
2013-07-20 21:06:00,69.0,50.0,-100.00,NE,39,2.0,5.0,51,0.00,,,0.01,45.000000,,2013-07-21 02:06:00,
2013-07-20 21:47:00,66.0,48.0,-100.00,ENE,57,3.0,8.0,52,0.00,,,0.01,6.000000,,2013-07-21 02:47:00,
2013-07-20 21:58:00,66.0,48.0,-100.00,ENE,57,3.0,8.0,52,0.00,,,0.01,6.000000,,2013-07-21 02:58:00,
2013-07-20 22:04:00,66.0,48.0,-100.00,ENE,57,3.0,8.0,52,0.00,,,0.01,6.000000,,2013-07-21 03:04:00,
2013-07-20 22:14:00,66.0,48.0,-100.00,ENE,57,3.0,8.0,52,0.00,,,0.01,6.000000,,2013-07-21 03:14:00,
2013-07-20 22:47:00,63.0,50.0,-100.00,East,86,3.0,6.0,62,0.00,,,0.01,0.000000,,2013-07-21 03:47:00,
2013-07-20 23:00:00,63.0,50.0,-100.00,East,86,3.0,6.0,62,0.00,,,0.01,0.000000,,2013-07-21 04:00:00,
2013-07-20 23:01:00,63.0,50.0,-100.00,East,86,3.0,6.0,62,0.00,,,0.01,0.000000,,2013-07-21 04:01:00,
2013-07-20 23:11:00,63.0,50.0,-100.00,East,86,3.0,6.0,62,0.00,,,0.01,0.000000,,2013-07-21 04:11:00,
2013-07-20 23:43:00,60.0,50.0,-100.00,East,81,1.0,6.0,69,0.00,,,0.01,0.000000,,2013-07-21 04:43:00,
2013-07-20 23:53:00,60.0,50.0,-100.00,East,81,1.0,6.0,69,0.00,,,0.01,0.000000,,2013-07-21 04:53:00,